ROCKY HARBOUR CS/NF, current weather conditions

sailwx.info

Last reported at 2015-Mar-20 01:32 UTC.
Time now 2015-Aug-01 13:54 UTC

Location: N 49°34' W 057°53'.
View on Google Maps.

See reports from other nearby stations

  
Tides and Currents Weather Stations Pressure Air Temp Water Temp Dewpoint Dewpoint Depression Visibility Wind Speed Wind Dir Waves Ship Positions
date/time (UTC)wind fromknots sea level pressurealtimeterstation pressurevisibilityair tempwater tempwave heightnotes
2015-Aug-01 12:00 150 5 17.0
2015-Aug-01 11:00 160 6 16.0
2015-Aug-01 10:00 180 4 16.0
2015-Aug-01 09:00 160 7 16.0
2015-Aug-01 08:00 160 8 gusting 18 16.0
2015-Aug-01 07:00 160 8 gusting 17 16.0
2015-Aug-01 06:00 150 7 gusting 15 16.0
2015-Aug-01 05:00 150 10 gusting 20 16.0
2015-Aug-01 04:00 130 9 gusting 16 15.0
2015-Aug-01 03:00 140 5 16.0
2015-Aug-01 02:00 130 5 17.0
2015-Aug-01 01:00 130 9 gusting 18 19.0
2015-Aug-01 00:00 120 10 gusting 20 19.0
2015-Jul-31 23:00 120 9 gusting 20 20.0
2015-Jul-31 22:00 100 7 21.0
2015-Jul-31 21:00 130 7 gusting 16 22.0
2015-Jul-31 20:00 150 7 22.0
2015-Jul-31 19:00 150 8 gusting 16 25.0
2015-Jul-31 18:00 160 9 gusting 17 23.0
2015-Jul-31 17:00 160 11 gusting 20 23.0
2015-Jul-31 16:00 140 8 gusting 17 20.0
2015-Jul-31 15:00 150 6 20.0
2015-Jul-31 14:00 150 7 17.0
2015-Jul-31 13:00 160 8 16.0
2015-Jul-31 12:00 170 8 gusting 16 15.0
2015-Jul-31 11:00 170 7 14.0
2015-Jul-31 10:00 160 7 12.0
2015-Jul-31 09:00 160 6 11.0
2015-Jul-31 08:00 170 4 11.0
2015-Jul-31 07:00 170 4 11.0
2015-Jul-31 06:00 150 5 11.0
2015-Jul-31 05:00 150 4 12.0
2015-Jul-31 04:00 130 5 12.0
2015-Jul-31 03:00 140 4 13.0
2015-Jul-31 02:00 160 3 14.0
2015-Jul-31 01:00 14.0
2015-Jul-31 00:00 14.0
2015-Jul-30 23:00 280 2 14.0
2015-Jul-30 22:00 270 3 14.0
2015-Jul-30 21:00 260 5 16.0
2015-Jul-30 20:00 280 5 16.0
2015-Jul-30 19:00 270 6 17.0
2015-Jul-30 18:00 260 7 19.0
2015-Jul-30 17:00 260 6 18.0
2015-Jul-30 16:00 260 7 19.0
2015-Jul-30 15:00 260 7 21.0
2015-Jul-30 14:00 250 6 20.0
2015-Jul-30 13:00 260 5 18.0